This demonstration page uses our WeatherBlox Daily Observations layout. Learn more.

Left ArrowRight Arrow

39.92423, -83.80882

Hourly Observations for May 13, 2018

Temp ( °F °C ) Dew Point ( °F °C ) Humidity (%) Winds ( mph kmh ) Pressure ( in mb ) Visibility ( mi km ) Precip ( " mm )
12:56 am 00:56 Cloudy 60 15.6 53 11.7 78 78 NNE 8 13 30.06 1018 10 16.0934 0 0
1:56 am 01:56 Mostly Clear 58 14.4 53 11.7 84 84 E 7 11 30.04 1017 10 16.0934 0 0
2:56 am 02:56 Mostly Clear 57 13.9 53 11.7 87 87 ESE 6 9 30.02 1017 10 16.0934 0 0
3:56 am 03:56 Clear 57 13.9 53 11.7 87 87 SE 6 9 30.01 1016 10 16.0934 0 0
4:56 am 04:56 Clear 55 12.8 53 11.7 93 93 E 6 9 30.01 1016 10 16.0934 0 0
5:56 am 05:56 Clear 56 13.3 54 12.2 93 93 SE 6 9 30 1016 10 16.0934 0 0
6:56 am 06:56 Sunny 57 13.9 55 12.8 93 93 SE 7 11 30.01 1016 9 14.48406 0 0
7:56 am 07:56 Partly Cloudy 60 15.6 57 13.9 90 90 SE 3 6 30.02 1017 9 14.48406 0 0
8:56 am 08:56 Mostly Sunny 69 20.6 61 16.1 76 76 SW 10 17 30.01 1016 10 16.0934 0 0
9:56 am 09:56 Cloudy 77 25 63 17.2 62 62 WSW 16 26 30 1016 10 16.0934 0 0
10:56 am 10:56 Sunny 80 26.7 64 17.8 58 58 WSW 16 26 29.99 1016 10 16.0934 0 0
11:56 am 11:56 Mostly Cloudy 81 27.2 64 17.8 57 57 W 16 26 29.98 1015 10 16.0934 0 0
12:56 pm 12:56 Mostly Cloudy 83 28.3 65 18.3 55 55 W 14 22 29.98 1015 10 16.0934 0 0
1:56 pm 13:56 Mostly Cloudy 85 29.4 66 18.9 53 53 W 15 24 29.96 1015 10 16.0934 0 0
2:56 pm 14:56 Mostly Cloudy 87 30.6 65 18.3 48 48 W 18 30 29.95 1014 10 16.0934 0 0
3:56 pm 15:56 Partly Cloudy 87 30.6 64 17.8 46 46 WNW 13 20 29.94 1014 10 16.0934 0 0
4:56 pm 16:56 Mostly Cloudy 86 30 65 18.3 49 49 W 15 24 29.94 1014 10 16.0934 0 0
5:56 pm 17:56 Mostly Cloudy 85 29.4 65 18.3 51 51 WNW 14 22 29.94 1014 10 16.0934 0 0
6:56 pm 18:56 Partly Cloudy 83 28.3 65 18.3 55 55 NW 9 15 29.94 1014 10 16.0934 0 0
7:56 pm 19:56 Sunny 80 26.7 66 18.9 62 62 NW 6 9 29.94 1014 10 16.0934 0 0
8:56 pm 20:56 Mostly Clear 76 24.4 63 17.2 64 64 N 13 20 29.97 1015 10 16.0934 0 0
9:56 pm 21:56 Cloudy 74 23.3 62 16.7 67 67 Calm 29.99 1016 10 16.0934 0 0
10:56 pm 22:56 Clear 71 21.7 63 17.2 76 76 SE 9 15 29.95 1014 10 16.0934 0 0
11:56 pm 23:56 Clear 71 21.7 63 17.2 76 76 S 6 9 29.95 1014 10 16.0934 0 0

Powered by AerisWeather